Miscellaneous Local Product
Issued by NWS Hastings, NE

Home | Current Version | Previous Version | Graphics & Text | Print | Product List | Glossary On
Versions: 1 2 3 4 5 6 7 8 9 10 11 12 13 14 15 16 17 18 19 20 21 22 23 24 25 26 27 28 29 30 31 32 33 34 35 36 37 38 39 40 41 42 43 44 45 46 47 48 49 50
000
AXUS43 KGID 181502
MISGRI

GID CWA HOURLY WEATHER ROUNDUP
NATIONAL WEATHER SERVICE HASTINGS NE
1000 AM CDT FRI APR 18 2014

NOTE: "FAIR" INDICATES FEW OR NO CLOUDS BELOW 12,000 FEET WITH NO
SIGNIFICANT WEATHER AND/OR OBSTRUCTIONS TO VISIBILITY.

...SOUTH CENTRAL NEBRASKA...

CITY           SKY/WX    TMP DP  RH WIND       PRES   REMARKS
GRAND ISLAND   SUNNY     53  37  54 S20       30.17S
HASTINGS       SUNNY     51  36  56 S14G22    30.17S
KEARNEY        SUNNY     52  39  62 S22       30.14F
ORD            SUNNY     51  37  58 S20G29    30.10F
YORK           SUNNY     52  36  54 S18       30.21S
AURORA         SUNNY     51  39  63 S15G22    30.19S
LEXINGTON      SUNNY     51  41  69 S16G22    30.11F
HOLDREGE       SUNNY     51  39  65 S17G26    30.13F
HEBRON         SUNNY     53  36  51 S13       30.23F

...NEBRASKA PANHANDLE...

CITY           SKY/WX    TMP DP  RH WIND       PRES   REMARKS
CHADRON        PTSUNNY   55  39  54 CALM      29.84F
ALLIANCE       PTSUNNY   50  39  66 S12       29.92S
SCOTTSBLUFF    MOSUNNY   53  39  59 E9        29.92F
SIDNEY         SUNNY     56  39  53 SW13      29.97S

...WESTERN AND NORTH CENTRAL NEBRASKA...

CITY           SKY/WX    TMP DP  RH WIND       PRES   REMARKS
VALENTINE      SUNNY     53  37  54 S21G26    29.92F
AINSWORTH      SUNNY     53  38  57 S23G36    29.95F
ONEILL         SUNNY     52  38  58 S23G32    30.07F
BROKEN BOW     SUNNY     50  39  66 S25       30.07F
IMPERIAL       MOSUNNY   50  37  61 S17       30.02F
NORTH PLATTE   MOSUNNY   49  38  65 S14       30.04F
MCCOOK         SUNNY     51  41  68 S15       30.09F

...EASTERN NEBRASKA...

CITY           SKY/WX    TMP DP  RH WIND       PRES   REMARKS
NORFOLK        SUNNY     53  36  52 S20       30.17F
SO SIOUX CITY  MOSUNNY   47  33  58 SE14      30.24F
TEKAMAH        SUNNY     50  33  52 SE15      30.25F HAZE
COLUMBUS       SUNNY     54  34  47 S15G23    30.21S
ALBION         SUNNY     52  38  60 S17G23    30.16S
OMAHA EPPLEY   SUNNY     48  33  56 S9        30.28S HAZE
OFFUTT AFB     SUNNY     48  36  63 SE9       30.28S SMOKE
MILLARD        SUNNY     46  34  64 NE3       30.28S HAZE
LINCOLN        MOSUNNY   53  35  50 S12       30.26F HAZE
NEBRASKA CITY  SUNNY     48  37  64 S7        30.29F HAZE
BEATRICE       SUNNY     51  35  53 S12       30.26F HAZE
FALLS CITY     SUNNY     50  38  63 S9        30.30S HAZE

...NORTHERN KANSAS...

CITY           SKY/WX    TMP DP  RH WIND       PRES   REMARKS
GOODLAND       SUNNY     48  37  65 S22       30.06F
HILL CITY      SUNNY     53  41  63 S18       30.15F
PHILLIPSBURG   SUNNY     52  39  62 S12       30.17F
SMITH CENTER   SUNNY     50  37  62 S15       30.20S
BELOIT         SUNNY     52  37  58 SE13      30.22F
HAYS           SUNNY     54  41  62 S16       30.19S
RUSSELL        SUNNY     53  38  56 S15       30.19F
CONCORDIA      SUNNY     52  37  56 S17       30.24S
SALINA         SUNNY     53  37  54 S13       30.27F HAZE
TOPEKA         SUNNY     49  38  65 E5        30.32F HAZE



USA.gov is the U.S. government's official web portal to all federal, state and local government web resources and services.